Time,TemperatureF,DewpointF,PressureIn,WindDirection,WindDirectionDegrees,WindSpeedMPH,WindSpeedGustMPH,Humidity,HourlyPrecipIn,Conditions,Clouds,dailyrainin,SoftwareType,DateUTC
2013-04-10 00:09:00,65.5,61.0,29.74,SE,145,0.0,0.0,84,0.00,,,0.00,weatherlink.com 1.10,2013-04-10 05:09:00,
2013-04-10 00:24:00,66.8,61.0,29.74,SE,141,2.0,6.0,81,0.00,,,0.00,weatherlink.com 1.10,2013-04-10 05:24:00,
2013-04-10 00:39:00,68.0,61.0,29.73,SE,143,1.0,6.0,79,0.00,,,0.00,weatherlink.com 1.10,2013-04-10 05:39:00,
2013-04-10 00:54:00,67.6,61.0,29.74,SSE,148,1.0,3.0,79,0.00,,,0.00,weatherlink.com 1.10,2013-04-10 05:54:00,
2013-04-10 01:09:00,67.6,61.0,29.74,SSE,150,1.0,4.0,80,0.00,,,0.00,weatherlink.com 1.10,2013-04-10 06:09:00,
2013-04-10 01:24:00,67.6,61.0,29.74,SSE,153,1.0,4.0,80,0.00,,,0.00,weatherlink.com 1.10,2013-04-10 06:24:00,
2013-04-10 01:39:00,67.5,62.0,29.74,SE,145,0.0,3.0,81,0.00,,,0.00,weatherlink.com 1.10,2013-04-10 06:39:00,
2013-04-10 01:54:00,67.2,62.0,29.74,SE,144,1.0,1.0,82,0.00,,,0.00,weatherlink.com 1.10,2013-04-10 06:54:00,
2013-04-10 02:09:00,67.7,62.0,29.74,SSE,155,1.0,3.0,82,0.00,,,0.00,weatherlink.com 1.10,2013-04-10 07:09:00,
2013-04-10 02:24:00,67.9,62.0,29.74,SSE,163,1.0,2.0,82,0.00,,,0.00,weatherlink.com 1.10,2013-04-10 07:24:00,
2013-04-10 02:39:00,68.4,63.0,29.73,SSE,168,2.0,4.0,82,0.00,,,0.00,weatherlink.com 1.10,2013-04-10 07:39:00,
2013-04-10 02:54:00,68.5,63.0,29.73,SSE,150,4.0,7.0,82,0.00,,,0.00,weatherlink.com 1.10,2013-04-10 07:54:00,
2013-04-10 03:09:00,68.0,62.0,29.71,ESE,122,2.0,5.0,82,0.00,,,0.00,weatherlink.com 1.10,2013-04-10 08:09:00,
2013-04-10 03:24:00,67.4,62.0,29.71,SE,124,3.0,3.0,84,0.00,,,0.00,weatherlink.com 1.10,2013-04-10 08:24:00,
2013-04-10 03:39:00,67.0,62.0,29.72,SE,140,1.0,5.0,85,0.00,,,0.00,weatherlink.com 1.10,2013-04-10 08:39:00,
2013-04-10 03:54:00,67.1,63.0,29.71,SSE,157,1.0,5.0,85,0.00,,,0.00,weatherlink.com 1.10,2013-04-10 08:54:00,
2013-04-10 04:09:00,67.2,63.0,29.71,SSE,156,2.0,6.0,86,0.00,,,0.00,weatherlink.com 1.10,2013-04-10 09:09:00,
2013-04-10 04:24:00,67.5,63.0,29.70,SSE,166,1.0,5.0,86,0.00,,,0.00,weatherlink.com 1.10,2013-04-10 09:24:00,
2013-04-10 04:39:00,67.6,63.0,29.69,SSE,148,2.0,6.0,86,0.00,,,0.00,weatherlink.com 1.10,2013-04-10 09:39:00,
2013-04-10 04:54:00,67.8,63.0,29.68,South,169,3.0,6.0,85,0.00,,,0.00,weatherlink.com 1.10,2013-04-10 09:54:00,
2013-04-10 05:09:00,67.6,63.0,29.69,SE,143,5.0,9.0,86,0.00,,,0.00,weatherlink.com 1.10,2013-04-10 10:09:00,
2013-04-10 05:24:00,68.0,64.0,29.68,SSE,165,2.0,5.0,86,0.00,,,0.00,weatherlink.com 1.10,2013-04-10 10:24:00,
2013-04-10 05:39:00,68.0,64.0,29.69,South,176,2.0,6.0,87,0.00,,,0.00,weatherlink.com 1.10,2013-04-10 10:39:00,
2013-04-10 05:54:00,68.4,64.0,29.68,SSE,152,1.0,6.0,86,0.00,,,0.00,weatherlink.com 1.10,2013-04-10 10:54:00,
2013-04-10 06:09:00,68.6,64.0,29.72,NW,306,0.0,11.0,84,0.00,,,0.00,weatherlink.com 1.10,2013-04-10 11:09:00,
2013-04-10 06:24:00,67.0,62.0,29.72,North,4,2.0,9.0,85,0.04,,,0.04,weatherlink.com 1.10,2013-04-10 11:24:00,
2013-04-10 06:39:00,65.2,62.0,29.75,NW,307,2.0,4.0,89,0.04,,,0.04,weatherlink.com 1.10,2013-04-10 11:39:00,
2013-04-10 06:54:00,65.2,61.0,29.75,NW,309,1.0,3.0,87,0.05,,,0.05,weatherlink.com 1.10,2013-04-10 11:54:00,
2013-04-10 07:09:00,65.1,61.0,29.76,WNW,302,0.0,6.0,86,0.05,,,0.05,weatherlink.com 1.10,2013-04-10 12:09:00,
2013-04-10 07:24:00,64.1,60.0,29.76,West,281,2.0,8.0,87,0.01,,,0.05,weatherlink.com 1.10,2013-04-10 12:24:00,
2013-04-10 07:39:00,63.2,60.0,29.76,NW,314,0.0,4.0,88,0.01,,,0.05,weatherlink.com 1.10,2013-04-10 12:39:00,
2013-04-10 07:54:00,62.6,60.0,29.76,West,273,2.0,3.0,91,0.00,,,0.05,weatherlink.com 1.10,2013-04-10 12:54:00,
2013-04-10 08:09:00,62.4,60.0,29.75,WNW,288,0.0,4.0,91,0.00,,,0.05,weatherlink.com 1.10,2013-04-10 13:09:00,
2013-04-10 08:24:00,62.2,60.0,29.74,East,82,1.0,1.0,91,0.00,,,0.05,weatherlink.com 1.10,2013-04-10 13:24:00,
2013-04-10 08:39:00,62.4,60.0,29.76,NNW,335,1.0,4.0,92,0.00,,,0.05,weatherlink.com 1.10,2013-04-10 13:39:00,
2013-04-10 08:54:00,62.6,60.0,29.77,NNW,335,4.0,5.0,92,0.00,,,0.05,weatherlink.com 1.10,2013-04-10 13:54:00,
2013-04-10 09:09:00,61.8,59.0,29.78,NNE,16,9.0,9.0,90,0.00,,,0.05,weatherlink.com 1.10,2013-04-10 14:09:00,
2013-04-10 09:24:00,59.2,57.0,29.79,NW,324,6.0,12.0,91,0.00,,,0.05,weatherlink.com 1.10,2013-04-10 14:24:00,
2013-04-10 09:40:00,56.7,55.0,29.82,NNW,340,8.0,12.0,93,0.07,,,0.12,weatherlink.com 1.10,2013-04-10 14:40:00,
2013-04-10 09:55:00,55.5,54.0,29.80,North,356,8.0,10.0,95,0.09,,,0.14,weatherlink.com 1.10,2013-04-10 14:55:00,
2013-04-10 10:10:00,55.0,54.0,29.79,North,9,3.0,10.0,96,0.11,,,0.16,weatherlink.com 1.10,2013-04-10 15:10:00,
2013-04-10 10:25:00,54.6,54.0,29.80,NNW,339,5.0,9.0,97,0.12,,,0.17,weatherlink.com 1.10,2013-04-10 15:25:00,
2013-04-10 10:40:00,54.0,53.0,29.83,NW,314,5.0,13.0,97,0.06,,,0.18,weatherlink.com 1.10,2013-04-10 15:40:00,
2013-04-10 10:55:00,54.1,53.0,29.79,ENE,70,2.0,8.0,97,0.15,,,0.29,weatherlink.com 1.10,2013-04-10 15:55:00,
2013-04-10 11:10:00,55.1,55.0,29.78,SE,136,1.0,7.0,98,0.13,,,0.29,weatherlink.com 1.10,2013-04-10 16:10:00,
2013-04-10 11:25:00,56.1,56.0,29.78,NE,40,2.0,6.0,98,0.12,,,0.29,weatherlink.com 1.10,2013-04-10 16:25:00,
2013-04-10 11:40:00,56.0,56.0,29.78,SE,126,4.0,6.0,98,0.11,,,0.29,weatherlink.com 1.10,2013-04-10 16:40:00,
2013-04-10 11:55:00,56.9,56.0,29.78,SE,129,5.0,8.0,97,0.00,,,0.29,weatherlink.com 1.10,2013-04-10 16:55:00,
2013-04-10 12:10:00,59.3,59.0,29.77,ESE,103,1.0,7.0,97,0.00,,,0.29,weatherlink.com 1.10,2013-04-10 17:10:00,
2013-04-10 12:25:00,62.0,61.0,29.77,SE,136,3.0,5.0,95,0.00,,,0.29,weatherlink.com 1.10,2013-04-10 17:25:00,
2013-04-10 12:40:00,63.7,61.0,29.76,SSE,160,1.0,3.0,92,0.00,,,0.29,weatherlink.com 1.10,2013-04-10 17:40:00,
2013-04-10 13:10:00,67.0,63.0,29.74,ESE,104,2.0,4.0,87,0.00,,,0.29,weatherlink.com 1.10,2013-04-10 18:10:00,
2013-04-10 13:25:00,69.0,64.0,29.73,SSE,149,4.0,5.0,84,0.00,,,0.29,weatherlink.com 1.10,2013-04-10 18:25:00,
2013-04-10 13:40:00,71.0,65.0,29.73,South,174,1.0,5.0,81,0.00,,,0.29,weatherlink.com 1.10,2013-04-10 18:40:00,
2013-04-10 13:55:00,72.5,66.0,29.71,East,84,1.0,4.0,80,0.00,,,0.29,weatherlink.com 1.10,2013-04-10 18:55:00,
2013-04-10 14:10:00,72.7,66.0,29.72,ENE,73,2.0,4.0,78,0.00,,,0.29,weatherlink.com 1.10,2013-04-10 19:10:00,
2013-04-10 14:25:00,69.3,64.0,29.73,NNW,341,10.0,13.0,84,0.00,,,0.29,weatherlink.com 1.10,2013-04-10 19:25:00,
2013-04-10 14:40:00,66.6,63.0,29.72,NW,325,11.0,15.0,87,0.00,,,0.29,weatherlink.com 1.10,2013-04-10 19:40:00,
2013-04-10 14:55:00,63.4,60.0,29.71,NE,51,6.0,17.0,88,0.00,,,0.29,weatherlink.com 1.10,2013-04-10 19:55:00,
2013-04-10 15:10:00,61.7,59.0,29.71,NNW,337,4.0,14.0,89,0.00,,,0.29,weatherlink.com 1.10,2013-04-10 20:10:00,
2013-04-10 15:25:00,61.2,58.0,29.68,NE,37,4.0,9.0,90,0.00,,,0.29,weatherlink.com 1.10,2013-04-10 20:25:00,
2013-04-10 15:55:00,62.6,60.0,29.66,ENE,71,3.0,6.0,90,0.00,,,0.29,weatherlink.com 1.10,2013-04-10 20:55:00,
2013-04-10 16:10:00,64.9,61.0,29.65,East,79,4.0,9.0,88,0.00,,,0.29,weatherlink.com 1.10,2013-04-10 21:10:00,
2013-04-10 16:25:00,64.8,61.0,29.65,NE,39,3.0,7.0,86,0.00,,,0.29,weatherlink.com 1.10,2013-04-10 21:25:00,
2013-04-10 16:40:00,65.1,61.0,29.64,NE,46,3.0,10.0,86,0.00,,,0.29,weatherlink.com 1.10,2013-04-10 21:40:00,
2013-04-10 16:55:00,64.7,61.0,29.61,NE,47,5.0,7.0,87,0.00,,,0.29,weatherlink.com 1.10,2013-04-10 21:55:00,
2013-04-10 17:10:00,64.7,61.0,29.61,ENE,78,4.0,9.0,87,0.00,,,0.29,weatherlink.com 1.10,2013-04-10 22:10:00,
2013-04-10 17:26:00,64.5,61.0,29.60,ESE,110,6.0,12.0,87,0.00,,,0.29,weatherlink.com 1.10,2013-04-10 22:26:00,
2013-04-10 17:40:00,64.7,61.0,29.59,East,91,5.0,13.0,87,0.00,,,0.29,weatherlink.com 1.10,2013-04-10 22:40:00,
2013-04-10 17:55:00,65.1,62.0,29.57,SE,134,6.0,15.0,88,0.00,,,0.29,weatherlink.com 1.10,2013-04-10 22:55:00,
2013-04-10 18:10:00,65.1,62.0,29.57,ENE,62,4.0,10.0,88,0.00,,,0.29,weatherlink.com 1.10,2013-04-10 23:10:00,
2013-04-10 18:25:00,64.7,62.0,29.57,East,79,3.0,8.0,89,0.00,,,0.29,weatherlink.com 1.10,2013-04-10 23:25:00,
2013-04-10 18:40:00,64.2,62.0,29.55,ENE,58,6.0,7.0,91,0.04,,,0.33,weatherlink.com 1.10,2013-04-10 23:40:00,
2013-04-10 18:55:00,63.9,62.0,29.56,WSW,252,2.0,5.0,93,0.05,,,0.34,weatherlink.com 1.10,2013-04-10 23:55:00,
2013-04-10 19:11:00,63.5,62.0,29.55,WSW,243,3.0,6.0,95,0.14,,,0.43,weatherlink.com 1.10,2013-04-11 00:11:00,
2013-04-10 19:26:00,63.1,62.0,29.55,NE,50,4.0,7.0,96,0.14,,,0.43,weatherlink.com 1.10,2013-04-11 00:26:00,
2013-04-10 19:41:00,60.3,58.0,29.60,WSW,240,2.0,20.0,92,0.29,,,0.62,weatherlink.com 1.10,2013-04-11 00:41:00,
2013-04-10 19:56:00,58.0,57.0,29.61,NW,307,21.0,21.0,95,0.46,,,0.80,weatherlink.com 1.10,2013-04-11 00:56:00,
2013-04-10 20:11:00,57.7,57.0,29.70,West,260,4.0,18.0,98,0.63,,,1.06,weatherlink.com 1.10,2013-04-11 01:11:00,
2013-04-10 20:26:00,57.5,57.0,29.69,North,356,4.0,14.0,98,0.68,,,1.11,weatherlink.com 1.10,2013-04-11 01:26:00,
2013-04-10 20:41:00,57.1,57.0,29.66,NE,53,6.0,8.0,98,0.55,,,1.17,weatherlink.com 1.10,2013-04-11 01:41:00,
2013-04-10 20:56:00,56.2,56.0,29.65,NNE,23,1.0,8.0,98,0.38,,,1.18,weatherlink.com 1.10,2013-04-11 01:56:00,
2013-04-10 21:11:00,56.1,56.0,29.65,East,79,1.0,3.0,99,0.14,,,1.21,weatherlink.com 1.10,2013-04-11 02:11:00,
2013-04-10 21:26:00,56.3,56.0,29.65,North,350,3.0,4.0,99,0.13,,,1.25,weatherlink.com 1.10,2013-04-11 02:26:00,
2013-04-10 21:41:00,56.2,56.0,29.66,NNE,18,0.0,3.0,99,0.15,,,1.32,weatherlink.com 1.10,2013-04-11 02:41:00,
2013-04-10 21:56:00,56.1,56.0,29.67,East,94,0.0,2.0,99,0.23,,,1.41,weatherlink.com 1.10,2013-04-11 02:56:00,
2013-04-10 22:12:00,56.3,56.0,29.66,NNE,30,3.0,5.0,99,0.25,,,1.46,weatherlink.com 1.10,2013-04-11 03:12:00,
2013-04-10 23:26:00,55.7,56.0,29.61,ESE,120,3.0,7.0,99,0.05,,,1.56,weatherlink.com 1.10,2013-04-11 04:26:00,